Flag for Canada Weather past 2 weeks in Kuujjuaq, Quebec, Canada

Now
41 °F

Passing clouds.


Feels Like: 38 °F
Forecast: 37 / 52 °F
Wind: 5 mph from North

Location: Kuujjuaq

Current Time: Aug 31, 2015 at 12:49:16 AM

Latest Report: Aug 30, 2015 at 11:00 PM


Visibility: 15 mi

Pressure: 29.87 "Hg

Humidity: 93%

Dew point: 39 °F

Location of KuujjuaqLocation

Historic Weather in Kuujjuaq — Graph

°F

Kuujjuaq temperature yesterday

Maximum temperature yesterday: 54 °F (at 3:00 PM)
Minimum temperature yesterday: 36 °F (at 5:47 AM)
Average temperature yesterday: 45 °F

Past Weeks' High & Low Weather Summary

 TemperatureHumidityPressure
High77 °F (Aug 26, 1:00 PM)100% (Aug 17, 1:00 PM)30.19 "Hg (Aug 17, 1:00 PM)
Low36 °F (Aug 30, 5:47 AM)43% (Aug 16, 3:00 PM)29.22 "Hg (Aug 17, 3:00 PM)
Average53 °F81%29.83 "Hg
* Reported Aug 15 11:00 PM — Aug 30 11:00 PM, Kuujjuaq, Weather by CustomWeather, © 2015

Note: Actual official high and low records may vary slightly from our data, if they occured in-between our weather recording intervals... More about our weather records

Advertising

Kuujjuaq weather history for previous 24 hours

 ConditionsComfort  
Time TempWeatherWind HumidityBarometerVisibility
11:00 PM
Sun, Aug 30
41 °FPassing clouds.5 mph93%29.87 "Hg15 mi
10:00 PM43 °FPassing clouds.5 mph87%29.87 "Hg15 mi
9:00 PM43 °FPassing clouds.5 mph87%29.86 "Hg15 mi
8:00 PM45 °FPartly sunny.7 mph87%29.86 "Hg15 mi
7:00 PM48 °FPartly sunny.7 mph76%29.85 "Hg15 mi
6:00 PM50 °FSprinkles. Partly sunny.7 mph76%29.84 "Hg15 mi
5:00 PM52 °FBroken clouds.8 mph67%29.84 "Hg15 mi
4:00 PM52 °FBroken clouds.No wind58%29.84 "Hg15 mi
3:00 PM54 °FSprinkles. Broken clouds.2 mph58%29.82 "Hg15 mi
2:00 PM52 °FPartly sunny.8 mph62%29.82 "Hg15 mi
1:00 PM52 °FSprinkles. Broken clouds.3 mph54%29.82 "Hg15 mi
12:49 PM52 °FSprinkles. Broken clouds.2 mph50%29.83 "Hg15 mi
12:00 PM50 °FPartly sunny.5 mph67%29.83 "Hg15 mi
11:00 AM50 °FPartly sunny.5 mph71%29.83 "Hg15 mi
10:00 AM50 °FScattered clouds.7 mph76%29.84 "Hg15 mi
9:00 AM46 °FPassing clouds.5 mph87%29.84 "Hg15 mi
8:00 AM43 °FScattered clouds.No wind100%29.84 "Hg15 mi
7:00 AM39 °FScattered clouds.No wind100%29.84 "Hg15 mi
6:00 AM37 °FFog.5 mph100%29.84 "Hg6 mi
5:47 AM36 °FFog.7 mph100%29.83 "Hg6 mi
5:00 AM37 °FFog.5 mph100%29.83 "Hg6 mi
4:00 AM37 °FFog.No wind100%29.83 "Hg1 mi
3:00 AM37 °FFog.2 mph100%29.82 "Hg1 mi
2:00 AM39 °FFog.3 mph100%29.81 "Hg1 mi
1:00 AM41 °FPassing clouds.6 mph93%29.82 "Hg15 mi
12:00 AM43 °FPassing clouds.3 mph87%29.82 "Hg15 mi
Weather by CustomWeather, © 2015

See weather overviewHow to use our weather pages